Somerville, NJ

3:59 PM EST on December 15, 2017 (GMT -0500)
Somerset

Weather History for KSMQ - June, 2013

Change the Weather History Date:

Wednesday, June 19, 2013

  Actual Average Record
Temperature  
Mean Temperature 68 °F -  
Max Temperature 78 °F 80 °F 93 °F (1957)
Min Temperature 57 °F 58 °F 44 °F (1954)
Cooling Degree Days 2    
Growing Degree Days 18 (Base 50)    
Moisture  
Dew Point 53 °F    
Average Humidity 67    
Maximum Humidity 94    
Minimum Humidity 32    
Precipitation  
Precipitation 0.00 in - - ()
Sea Level Pressure  
Sea Level Pressure 30.00 in    
Wind  
Wind Speed 5 mph (North)    
Max Wind Speed 9 mph    
Max Gust Speed 17 mph    
Visibility 10 miles    
Events      
Averages and records for this station are not official NWS values.
T = Trace of Precipitation, MM = Missing Value Source: NWS Daily Summary

Daily Weather History Graph

Daily Weather History Graph

Search for Another Location

Airport or City:

Trip Planner

Search our weather history database for the weather conditions in past years. The results will help you decide how hot, cold, wet, or windy it might be!

Date:

Astronomy

Jun. 19, 2013 Rise Set
Actual Time 5:27 AM EDT 8:32 PM EDT
Civil Twilight 4:54 AM EDT 9:06 PM EDT
Nautical Twilight 4:11 AM EDT 9:48 PM EDT
Astronomical Twilight 3:21 AM EDT 10:38 PM EDT
Moon 4:21 PM EDT (6/19) 2:11 AM EDT (6/19)
Length of Visible Light 16h 11m
Length of Day
15h 05m
Waxing Gibbous, 80% of the Moon is Illuminated
Jun 19
Waxing Gibbous
Jun 23
Full
Jun 30
Last Quarter
Jul 8
New
Jul 15
First Quarter

Hourly Weather History & Observations

Time (EDT) Temp. Dew Point Humidity Pressure Visibility Wind Dir Wind Speed Gust Speed Precip Events Conditions
12:03 AM 64.4 °F 60.8 °F 88% 29.88 in 10.0 mi NNW 4.6 mph - N/A   Scattered Clouds
12:53 AM 63.0 °F 61.0 °F 93% 29.88 in 10.0 mi North 4.6 mph - N/A   Overcast
1:53 AM 63.0 °F 61.0 °F 93% 29.88 in 10.0 mi North 5.8 mph - N/A   Overcast
2:50 AM 62.6 °F 60.8 °F 94% 29.89 in 10.0 mi North 4.6 mph - N/A   Overcast
2:53 AM 63.0 °F 60.1 °F 90% 29.89 in 10.0 mi North 4.6 mph - N/A   Overcast
3:53 AM 62.1 °F 57.9 °F 86% 29.90 in 10.0 mi North 4.6 mph - N/A   Overcast
4:06 AM 60.8 °F 57.2 °F 88% 29.91 in 10.0 mi North 5.8 mph - N/A   Overcast
4:53 AM 60.1 °F 55.9 °F 86% 29.91 in 10.0 mi North 4.6 mph - N/A   Clear
5:53 AM 57.9 °F 55.9 °F 93% 29.93 in 10.0 mi NW 4.6 mph - N/A   Clear
6:53 AM 60.1 °F 54.0 °F 80% 29.95 in 10.0 mi North 3.5 mph - N/A   Clear
7:53 AM 62.1 °F 53.1 °F 72% 30.00 in 10.0 mi North 4.6 mph - N/A   Clear
8:53 AM 64.9 °F 52.0 °F 63% 30.02 in 10.0 mi NNE 5.8 mph - N/A   Clear
9:53 AM 70.0 °F 50.0 °F 49% 30.03 in 10.0 mi NNE 8.1 mph - N/A   Clear
10:53 AM 72.0 °F 46.9 °F 41% 30.05 in 10.0 mi NNE 9.2 mph - N/A   Clear
11:53 AM 73.9 °F 43.0 °F 33% 30.05 in 10.0 mi NNE 8.1 mph 17.3 mph N/A   Clear
12:53 PM 73.9 °F 46.0 °F 37% 30.05 in 10.0 mi NW 8.1 mph - N/A   Scattered Clouds
1:53 PM 75.9 °F 45.0 °F 33% 30.04 in 10.0 mi Variable 6.9 mph - N/A   Scattered Clouds
2:53 PM 77.0 °F 48.9 °F 37% 30.05 in 10.0 mi Variable 6.9 mph - N/A   Partly Cloudy
3:53 PM 78.1 °F 46.0 °F 32% 30.05 in 10.0 mi Variable 4.6 mph - N/A   Mostly Cloudy
4:53 PM 78.1 °F 46.9 °F 33% 30.05 in 10.0 mi NW 4.6 mph - N/A   Partly Cloudy
5:53 PM 78.1 °F 48.0 °F 35% 30.04 in 10.0 mi Calm Calm - N/A   Clear
6:53 PM 75.9 °F 52.0 °F 43% 30.05 in 10.0 mi Calm Calm - N/A   Clear
7:53 PM 69.1 °F 53.1 °F 57% 30.07 in 10.0 mi Calm Calm - N/A   Clear
8:53 PM 63.0 °F 55.9 °F 78% 30.08 in 10.0 mi Calm Calm - N/A   Clear
9:53 PM 59.0 °F 55.0 °F 87% 30.11 in 10.0 mi Calm Calm - N/A   Clear
10:53 PM 59.0 °F 57.0 °F 93% 30.13 in 10.0 mi Calm Calm - N/A   Overcast
11:53 PM 61.0 °F 57.0 °F 87% 30.16 in 10.0 mi NW 4.6 mph - N/A   Overcast